ONEWEB-0299 (49088 NORAD) Tracking and Keplerian Element Data

This shows tracking and keplerian element data for the satellite.

Feedback or suggestion? Click here.




ElementValue
Catalog49088
NameONEWEB-0299
Epoch Orbit558
Epoch Day262.16668981
Epoch Year2021
RAAN356.4541
Inclination87.4134
Eccentricity0.001863
Argument of Perigee195.2327
Mean Anonmoly178.0836
Mean Motion15.12669292
Decay Rate-0.00929967
L11 49088U 21075P 21262.16668981 -.00929967 00000-0 -57257-1 0 9993
L22 49088 87.4134 356.4541 0018630 195.2327 178.0836 15.12669292 5587

Live tracking and technical data element details for ONEWEB-0299 (NORAD 49088). ONEWEB-0299 can be tracked NOW for your location showing map with azimuth and elevation plus other details from your city location.

Track the satellite on the map from your city or location and see movement details for azimuth, elevation, latitude, longitude, range, height, and movement on the map or in text.







IsCatalogInMostPopularTable: catalog: 49088, numindb: 5
Update: records affected: 1



GetName: 49088 ONEWEB-0299

Hit Count: updated at: Fri, 24 Sep 2021 18:35:02 GMT